Location: Buckland
(65.9785°N, 161.1281°W)
Time: 04:46:09
(UTC+00:00)

Transit 4A - Pass Details

Date: 28 November 2020
Orbit: 864 x 980 km, 66.8° (Epoch: 26 January)

Event Time Altitude Azimuth Distance (km) Brightness Sun altitude
Rises 19:50:41 0° 211° (SSW) 3,657 11.3 -2.7°
Reaches altitude 10° 19:53:19 10° 206° (SSW) 2,722 10.8 -2.5°
Maximum altitude 19:59:23 48° 134° (SE) 1,265 9.3 -2.2°
Drops below altitude 10° 20:05:30 10° 63° (ENE) 2,741 10.5 -1.8°
Sets 20:08:09 0° 58° (ENE) 3,685 11.0 -1.6°
